CAPE
5 4 3 5 3 1 3 2 2 1 0 0 1 0 0 0 0 0 0 0 0 0 0 0 0 0 0 0 0 0 0 0 0 0 0 0 0 0 0 0 0 0 6 8 5 6 26
1 3 4 5 5 3 4 2 1 0 0 0 0 0 0 0 0 0 0 0 0 0 0 0 0 0 0 0 0 0 0 0 0 0 0 0 0 0 0 0 0 0 0 0 0 0 3
1 4 5 4 1 0 0 2 0 0 0 0 0 0 0 0 0 0 0 0 0 0 0 0 0 0 0 0 0 0 0 0 0 0 0 0 0 0 0 0 0 0 0 0 0 0 16
4 4 5 5 3 0 0 0 0 0 0 0 0 0 0 0 0 0 0 0 0 0 0 0 0 0 0 0 0 0 0 0 0 0 0 0 0 0 0 0 0 0 0 0 0 0 0
0 1 0 2 2 0 0 0 0 0 0 0 0 0 0 0 0 0 0 0 0 0 0 0 0 0 0 0 0 0 0 0 0 0 0 0 0 0 0 0 0 0 0 0 0 0 0
5 2 0 0 0 0 0 0 0 0 0 0 0 0 0 0 0 0 0 0 0 0 0 0 0 0 0 0 0 0 0 0 0 0 0 0 0 0 0 0 0 0 0 0 6 18 16
0 0 0 0 0 0 0 0 0 0 0 0 0 0 0 0 0 0 0 0 0 0 0 0 0 0 0 0 0 0 0 0 0 0 0 0 0 0 0 0 0 0 0 0 0 27 2
0 0 0 0 0 0 0 0 0 0 0 0 0 0 0 0 0 0 0 0 0 0 0 0 0 0 0 0 0 0 0 0 0 0 0 0 0 0 0 0 0 0 0 1 5 17 19
0 0 0 0 0 0 0 0 0 0 0 0 0 0 0 0 0 0 0 0 0 0 0 0 0 0 0 0 0 0 0 0 0 0 0 0 0 0 0 0 0 0 0 0 0 7 3
1 0 0 0 0 0 0 0 0 0 0 0 0 0 0 0 0 0 0 0 0 0 0 0 0 0 0 0 0 0 0 0 0 0 0 0 0 0 0 0 0 0 0 0 0 10 8
0 0 0 1 1 0 0 0 0 0 0 0 0 0 0 0 0 0 0 0 0 0 0 0 0 0 0 0 0 0 0 0 0 0 0 0 0 0 0 0 0 0 0 0 0 3 8
0 0 0 0 0 0 0 0 0 0 0 0 0 0 0 0 0 0 0 0 0 0 0 0 0 0 0 0 0 0 0 0 0 0 0 0 0 0 0 0 0 0 0 0 0 0 0
0 0 0 0 0 0 0 0 0 0 0 0 0 0 0 0 0 0 0 0 0 0 0 0 0 0 0 0 0 0 0 0 0 0 0 0 0 0 0 0 0 0 0 0 0 0 0
0 0 0 0 0 0 0 0 0 0 0 0 0 0 0 0 0 0 0 0 0 0 0 0 0 0 0 0 0 0 0 0 0 0 0 0 0 0 0 0 0 0 0 0 0 0 0
0 3 0 0 0 0 0 0 0 0 0 0 0 0 0 0 0 0 0 0 0 0 0 0 0 0 0 0 0 0 0 0 0 0 0 0 0 0 0 0 0 0 0 0 0 0 1
0 4 4 0 0 0 0 0 0 0 0 0 0 0 0 0 0 0 0 0 0 0 0 0 0 0 0 0 0 0 0 0 0 0 0 0 0 0 0 0 0 0 0 0 0 0 0
7 9 6 1 0 1 3 3 3 0 0 0 0 0 0 0 0 0 0 0 0 0 0 0 0 0 0 0 0 0 0 0 0 0 0 0 0 0 0 0 0 0 0 0 0 0 0
7 4 2 0 0 2 0 0 3 0 0 0 0 0 0 1 0 0 0 0 0 0 0 0 0 0 0 0 0 0 0 0 0 0 0 0 0 0 0 0 0 0 0 0 0 0 0
4 5 4 5 1 0 4 6 1 0 0 7 2 0 0 0 0 0 0 0 0 0 0 0 0 0 0 0 0 0 0 0 0 0 0 0 0 0 0 0 0 0 0 0 0 0 0
1 2 9 14 18 24 16 10 9 11 5 3 16 0 0 0 0 0 1 0 0 0 0 0 0 0 0 0 0 0 0 0 0 0 0 0 0 0 0 0 0 0 0 0 0 0 0
4 6 18 27 37 50 46 32 23 7 7 6 17 6 5 0 0 0 0 1 1 0 0 0 0 0 0 0 0 0 0 0 0 0 0 0 0 0 0 0 0 0 0 0 0 0 0
6 14 18 24 31 53 78 75 63 13 3 18 7 11 19 12 2 0 0 0 0 0 3 0 0 0 0 0 0 0 0 0 0 0 0 0 0 0 0 0 0 0 1 0 0 0 0
7 4 12 32 46 82 113 101 73 33 4 22 9 11 38 14 5 11 0 0 2 0 1 1 0 0 0 0 0 0 0 0 0 0 0 0 0 0 0 0 0 1 0 0 0 0 0
0 19 35 56 67 88 134 119 91 53 18 40 27 43 8 6 5 1 14 28 21 4 0 0 0 0 0 0 0 0 0 0 0 0 0 2 0 0 0 0 3 0 0 0 0 0 0
5 15 30 55 51 77 107 122 111 85 45 43 45 21 0 0 7 0 22 60 13 5 1 0 0 0 0 0 0 0 0 0 0 0 0 2 0 0 2 0 0 3 9 90 21 0 0
5 9 25 20 28 62 107 144 116 113 52 34 54 42 2 0 0 11 30 12 14 25 3 0 18 1 0 0 1 0 0 5 0 0 0 0 0 19 6 10 0 4 103 310 150 112 289
6 9 22 19 25 21 63 86 105 102 89 35 45 74 3 0 1 0 5 29 41 6 2 8 18 6 0 0 0 0 0 0 13 3 0 0 7 13 15 7 0 182 251 55 31 29 871
0 0 15 19 20 17 46 38 64 68 61 42 22 111 23 2 2 0 0 15 13 6 1 10 0 20 0 1 3 0 0 0 0 0 1 0 0 4 68 68 27 316 52 34 507 709 664
0 0 0 11 12 9 11 40 29 15 24 10 14 56 51 26 0 0 0 1 1 1 3 1 0 0 19 20 12 9 0 5 6 0 0 0 0 0 0 0 4 497 882 845 784 692 742
CIN
-0 -0 -0 -0 -0 -0 -0 -0 -0 -0 -0 -0 -0 -0 -0 -0 -0 -0 -0 -0 -0 -0 -0 -0 -0 -0 -0 -0 -0 -0 -0 -0 -0 -0 -0 -0 -0 -0 -0 -0 -0 -0 -6 -6 -3 -3 -8
-0 -0 -0 -0 -0 -0 -0 -0 -0 -0 -0 -0 -0 -0 -0 -0 -0 -0 -0 -0 -0 -0 -0 -0 -0 -0 -0 -0 -0 -0 -0 -0 -0 -0 -0 -0 -0 -0 -0 -0 -0 -0 -0 -0 -0 -0 -3
-1 -0 -0 -0 -0 -0 -0 -0 -0 -0 -0 -0 -0 -0 -0 -0 -0 -0 -0 -0 -0 -0 -0 -0 -0 -0 -0 -0 -0 -0 -0 -0 -0 -0 -0 -0 -0 -0 -0 -0 -0 -0 -0 -0 -0 -0 -5
-2 -1 -0 -0 -0 -0 -0 -0 -0 -0 -0 -0 -0 -0 -0 -0 -0 -0 -0 -0 -0 -0 -0 -0 -0 -0 -0 -0 -0 -0 -0 -0 -0 -0 -0 -0 -0 -0 -0 -0 -0 -0 -0 -0 -0 -0 -0
-1 -2 -0 -0 -0 -0 -0 -0 -0 -0 -0 -0 -0 -0 -0 -0 -0 -0 -0 -0 -0 -0 -0 -0 -0 -0 -0 -0 -0 -0 -0 -0 -0 -0 -0 -0 -0 -0 -0 -0 -0 -0 -0 -0 -0 -1 -5
-0 -3 -0 -0 -0 -0 -0 -0 -0 -0 -0 -0 -0 -0 -0 -0 -0 -0 -0 -0 -0 -0 -0 -0 -0 -0 -0 -0 -0 -0 -0 -0 -0 -0 -0 -0 -0 -0 -0 -0 -0 -0 -0 -0 -2 -29 -24
-0 -0 -0 -0 -0 -0 -0 -0 -0 -0 -0 -0 -0 -0 -0 -0 -0 -0 -0 -0 -0 -0 -0 -0 -0 -0 -0 -0 -0 -0 -0 -0 -0 -0 -0 -0 -0 -0 -0 -0 -0 -0 -0 -0 -0 -5 -7
-0 -0 -0 -0 -0 -0 -0 -0 -0 -0 -0 -0 -0 -0 -0 -0 -0 -0 -0 -0 -0 -0 -0 -0 -0 -0 -0 -0 -0 -0 -0 -0 -0 -0 -0 -0 -0 -0 -0 -0 -0 -0 -0 -2 -16 -7 -13
-0 -0 -0 -0 -0 -0 -0 -0 -0 -0 -0 -0 -0 -0 -0 -0 -0 -0 -0 -0 -0 -0 -0 -0 -0 -0 -0 -0 -0 -0 -0 -0 -0 -0 -0 -0 -0 -0 -0 -0 -0 -0 -0 -0 -0 -26 -10
-3 -0 -0 -0 -0 -0 -0 -0 -0 -0 -0 -0 -0 -0 -0 -0 -0 -0 -0 -0 -0 -0 -0 -0 -0 -0 -0 -0 -0 -0 -0 -0 -0 -0 -0 -0 -0 -0 -0 -0 -0 -0 -0 -0 -0 -14 -30
-0 -0 -0 -1 -1 -0 -0 -0 -0 -0 -0 -0 -0 -0 -0 -0 -0 -0 -0 -0 -0 -0 -0 -0 -0 -0 -0 -0 -0 -0 -0 -0 -0 -0 -0 -0 -0 -0 -0 -0 -0 -0 -0 -0 -0 -14 -46
-0 -0 -0 -0 -0 -0 -0 -0 -0 -0 -0 -0 -0 -0 -0 -0 -0 -0 -0 -0 -0 -0 -0 -0 -0 -0 -0 -0 -0 -0 -0 -0 -0 -0 -0 -0 -0 -0 -0 -0 -0 -0 -0 -0 -0 -0 -0
-0 -0 -0 -0 -0 -0 -0 -0 -0 -0 -0 -0 -0 -0 -0 -0 -0 -0 -0 -0 -0 -0 -0 -0 -0 -0 -0 -0 -0 -0 -0 -0 -0 -0 -0 -0 -0 -0 -0 -0 -0 -0 -0 -0 -0 -0 -0
-0 -0 -3 -2 -0 -0 -0 -0 -0 -0 -0 -0 -0 -0 -0 -0 -0 -0 -0 -0 -0 -0 -0 -0 -0 -0 -0 -0 -0 -0 -0 -0 -0 -0 -0 -0 -0 -0 -0 -0 -0 -0 -0 -0 -0 -0 -0
-0 -1 -0 -0 -0 -0 -0 -0 -0 -0 -0 -0 -0 -0 -0 -0 -0 -0 -0 -0 -0 -0 -0 -0 -0 -0 -0 -0 -0 -0 -0 -0 -0 -0 -0 -0 -0 -0 -0 -0 -0 -0 -0 -0 -0 -0 -1
-0 -0 -1 -0 -0 -0 -0 -0 -0 -0 -0 -0 -0 -0 -0 -0 -0 -0 -0 -0 -0 -0 -0 -0 -0 -0 -0 -0 -0 -0 -0 -0 -0 -0 -0 -0 -0 -0 -0 -0 -0 -0 -0 -0 -0 -0 -0
-1 -1 -0 -0 -2 -10 -3 -6 -4 -0 -0 -0 -0 -0 -0 -0 -0 -0 -0 -0 -0 -0 -0 -0 -0 -0 -0 -0 -0 -0 -0 -0 -0 -0 -0 -0 -0 -0 -0 -0 -0 -0 -0 -0 -0 -0 -0
-0 -2 -3 -0 -0 -0 -0 -0 -5 -0 -0 -0 -0 -0 -0 -3 -0 -0 -0 -0 -0 -0 -0 -0 -0 -0 -0 -0 -0 -0 -0 -0 -0 -0 -0 -0 -0 -0 -0 -0 -0 -0 -0 -0 -0 -0 -0
-2 -2 -3 -2 -0 -0 -3 -4 -9 -0 -1 -2 -2 -0 -0 -0 -0 -0 -0 -0 -0 -0 -0 -0 -0 -0 -0 -0 -0 -0 -0 -0 -0 -0 -0 -0 -0 -0 -0 -0 -0 -0 -0 -0 -0 -0 -0
-0 -1 -0 -0 -1 -0 -1 -3 -6 -5 -5 -1 -1 -0 -0 -0 -0 -2 -3 -0 -0 -0 -0 -0 -0 -0 -0 -0 -0 -0 -0 -0 -0 -0 -0 -0 -0 -0 -0 -0 -0 -0 -0 -0 -0 -0 -0
-0 -0 -0 -0 -0 -0 -0 -6 -10 -7 -6 -2 -1 -1 -2 -0 -0 -0 -0 -4 -6 -7 -0 -0 -0 -0 -0 -0 -0 -0 -0 -0 -0 -0 -0 -0 -0 -0 -0 -0 -0 -0 -0 -0 -0 -0 -0
-0 -0 -0 -0 -0 -0 -0 -1 -1 -8 -9 -0 -1 -1 -3 -2 -2 -0 -0 -0 -0 -0 -5 -0 -0 -0 -0 -0 -0 -0 -0 -0 -0 -0 -0 -0 -0 -0 -0 -0 -0 -0 -6 -0 -0 -0 -0
-0 -0 -0 -6 -5 -0 -0 -0 -3 -11 -8 -0 -1 -0 -0 -0 -3 -5 -0 -0 -3 -1 -3 -6 -0 -0 -0 -0 -0 -0 -0 -0 -0 -0 -0 -0 -0 -0 -0 -0 -0 -1 -0 -0 -0 -0 -0
-0 -0 -17 -3 -0 -0 -0 -0 -3 -8 -5 -0 -0 -0 -1 -0 -2 -3 -43 -14 -15 -5 -1 -0 -0 -0 -0 -0 -0 -0 -0 -0 -0 -0 -0 -1 -0 -0 -0 -0 -1 -0 -0 -0 -0 -0 -0
-0 -0 -0 -1 -1 -0 -0 -0 -1 -4 -7 -0 -0 -2 -0 -0 -1 -0 -13 -7 -8 -24 -0 -0 -0 -0 -1 -0 -0 -0 -0 -0 -0 -0 -0 -1 -0 -0 -1 -0 -0 -5 -3 -3 -11 -0 -0
-0 -0 -0 -0 -0 -0 -0 -1 -0 -1 -7 -1 -1 -1 -0 -0 -0 -8 -9 -2 -7 -5 -5 -0 -4 -0 -0 -0 -0 -0 -0 -14 -1 -1 -0 -0 -5 -4 -2 -8 -0 -0 -12 -32 -70 -55 -26
-0 -0 -0 -0 -0 -0 -0 -1 -0 -0 -3 -1 -1 -0 -3 -0 -0 -0 -4 -3 -1 -16 -0 -1 -20 -9 -0 -0 -0 -0 -0 -0 -10 -8 -0 -0 -11 -2 -5 -4 -0 -20 -30 -76 -29 -14 -52
-0 -0 -0 -0 -0 -0 -5 -4 -3 -2 -5 -1 -1 -2 -1 -0 -0 -0 -0 -2 -2 -1 -2 -0 -0 -57 -0 -1 -0 -0 -0 -0 -0 -0 -5 -0 -0 -15 -4 -5 -46 -33 -120 -34 -28 -51 -50
-0 -0 -0 -2 -1 -2 -8 -1 -3 -6 -4 -2 -0 -2 -1 -7 -0 -0 -0 -4 -0 -1 -2 -2 -0 -0 -5 -5 -2 -1 -0 -1 -0 -0 -0 -0 -0 -0 -37 -1 -6 -18 -12 -42 -33 -30 -42
Wind_Speed
30 30 31 31 31 32 32 32 32 32 32 32 32 32 32 32 31 31 31 30 28 27 25 22 21 26 25 8 25 20 10 12 7 2 29 33 34 31 34 32 29 21 10 18 12 9 7
32 32 32 32 32 33 33 34 34 34 34 33 34 34 33 32 32 32 32 33 32 29 26 24 20 14 7 3 16 6 8 9 3 14 26 35 33 30 34 34 33 30 26 23 25 8 5
33 33 33 34 34 34 35 35 35 35 36 36 36 36 36 35 35 34 33 33 33 32 29 23 9 4 4 14 19 8 7 7 5 9 22 36 39 29 29 32 34 33 31 28 29 13 5
34 34 34 35 35 36 36 36 37 36 37 37 37 37 37 37 37 37 36 34 33 31 28 3 11 6 3 14 16 22 16 7 26 3 16 35 29 35 30 33 34 34 32 29 22 9 3
34 35 35 36 36 37 37 37 38 38 38 38 38 38 37 37 38 38 38 36 32 21 11 14 9 5 7 6 12 13 15 12 4 23 17 21 26 26 31 27 29 32 27 24 27 3 9
35 36 37 37 37 38 39 39 39 39 39 39 39 39 39 38 39 39 39 35 17 19 13 9 3 8 10 7 7 10 10 12 9 5 11 10 10 16 28 27 23 25 23 22 21 14 7
37 38 39 39 39 40 40 40 41 41 41 40 40 41 41 41 40 40 37 27 20 18 10 3 4 2 15 5 15 6 7 9 11 5 8 10 15 20 25 29 27 30 26 24 22 1 11
40 40 41 41 41 42 42 42 42 42 43 43 42 43 44 44 43 39 28 25 29 28 38 11 25 26 25 7 2 4 7 6 13 10 9 10 21 16 16 21 28 32 33 33 12 5 17
42 43 42 42 42 43 43 43 43 43 43 44 44 44 44 45 42 29 29 31 28 31 31 37 23 24 23 23 17 11 8 7 5 11 13 13 12 13 17 18 20 28 33 33 35 5 8
44 44 43 42 42 43 44 43 44 45 45 45 45 44 44 46 29 32 26 23 27 30 29 30 12 11 18 19 27 22 20 12 8 10 11 15 17 12 19 21 20 20 31 38 36 8 20
43 43 43 43 43 43 44 45 46 46 46 46 46 45 44 40 33 27 29 30 32 25 32 18 5 14 5 18 11 18 23 20 18 13 9 13 17 19 17 26 21 20 29 34 41 21 15
42 42 42 43 43 42 43 45 46 46 46 46 47 47 45 34 21 24 28 30 25 23 30 17 9 10 5 11 11 8 15 19 15 18 16 15 12 19 23 15 25 36 35 45 44 44 48
42 41 41 42 42 40 42 44 45 45 45 47 47 47 46 30 25 28 29 21 25 28 20 22 14 13 11 10 15 7 9 17 18 19 19 15 17 18 17 18 17 29 30 38 42 45 49
42 42 42 41 42 41 42 43 44 45 46 48 49 50 34 26 21 22 21 23 34 28 24 21 23 14 17 15 17 17 14 17 18 19 12 15 16 19 15 25 19 23 28 35 41 38 42
43 42 42 41 42 43 44 43 44 45 46 49 52 40 36 28 19 16 23 36 36 31 30 24 31 29 21 19 19 19 22 20 20 23 21 16 18 17 21 16 20 21 35 27 37 37 43
44 43 43 44 44 43 43 43 43 46 46 48 45 45 34 23 16 17 30 42 38 34 34 34 38 37 33 25 24 25 23 22 23 23 24 23 27 18 18 20 21 26 19 32 41 51 53
43 43 43 43 42 42 40 40 40 41 42 45 38 39 31 16 9 25 42 45 45 46 45 43 44 43 42 34 33 30 29 29 24 25 25 30 34 28 19 24 24 22 27 31 35 46 49
42 42 42 41 40 39 38 37 37 37 39 37 36 41 19 16 32 32 45 46 44 48 45 46 43 45 46 46 44 41 33 31 30 25 29 28 30 33 31 21 21 26 25 27 42 43 43
43 42 41 39 37 37 37 36 36 35 33 34 38 41 30 30 48 45 45 50 45 47 46 48 48 48 48 48 49 50 48 44 35 36 37 31 33 32 35 37 27 28 29 31 31 47 52
43 42 41 40 38 36 35 34 33 31 29 28 32 39 34 27 32 41 45 50 50 44 45 47 49 50 53 53 53 53 49 48 40 32 29 30 39 36 37 31 27 27 28 27 30 37 49
43 42 41 39 37 35 33 32 31 29 26 25 26 32 33 42 39 38 36 43 46 49 45 42 45 44 42 49 53 53 54 51 46 40 33 34 38 42 36 44 36 35 30 34 34 38 44
42 41 40 39 37 35 33 33 30 27 23 23 26 29 30 35 38 42 41 38 43 45 43 44 43 44 42 42 36 43 46 54 51 45 34 38 43 41 43 40 39 43 34 35 33 33 37
41 40 37 36 34 34 33 31 28 23 16 22 21 25 26 29 32 36 40 44 41 41 41 41 38 42 45 41 41 45 48 51 50 51 47 36 44 42 45 41 41 44 44 36 35 32 32
37 34 32 32 32 33 32 28 26 19 9 16 23 24 24 29 33 36 39 39 40 43 39 42 42 39 39 40 45 45 45 47 47 50 49 43 40 43 44 36 45 44 33 34 39 38 32
29 25 22 20 16 24 32 31 27 22 13 10 17 18 21 32 35 38 36 34 34 38 40 42 42 40 30 28 36 41 46 45 48 46 46 41 37 42 41 42 40 37 29 28 31 35 36
26 19 14 10 7 9 6 16 26 25 20 15 13 13 20 31 32 27 35 35 37 36 36 37 35 29 26 26 27 39 42 41 47 44 36 40 32 40 39 40 44 37 36 18 19 29 24
24 19 19 16 9 3 8 7 4 19 25 16 21 13 18 29 34 21 25 33 30 27 29 32 29 29 25 27 34 36 39 36 44 43 42 39 35 38 40 40 37 30 21 18 30 26 19
27 24 19 17 15 13 14 20 20 11 10 12 22 15 16 24 35 29 32 34 33 32 30 25 24 24 31 32 30 31 36 34 36 40 38 40 37 37 35 35 39 11 19 23 24 20 22
28 29 25 21 18 15 12 22 22 23 21 17 20 20 19 28 32 35 31 36 37 35 33 29 24 23 19 29 29 27 37 31 31 39 37 44 43 41 37 40 37 14 17 15 15 17 20
Wind_Direction
340 339 338 336 338 336 334 332 330 327 322 318 313 308 304 300 296 291 288 284 278 274 270 263 260 272 294 12 220 285 327 313 333 127 179 187 193 193 208 220 217 188 150 203 325 18 55
342 340 338 335 335 334 333 333 331 328 324 319 316 312 306 300 295 291 287 284 280 273 266 260 250 230 28 273 203 44 336 320 120 153 176 190 190 191 212 220 226 228 258 226 251 1 65
340 339 336 335 333 332 330 328 327 326 323 321 319 316 309 303 300 293 287 283 278 273 265 252 219 43 194 208 217 78 8 310 318 147 171 197 220 192 196 214 227 238 239 257 243 313 75
337 338 335 334 334 333 332 329 325 321 320 318 316 313 309 305 301 297 290 283 276 267 260 233 356 15 295 210 196 204 185 164 261 254 169 223 247 206 201 217 224 227 223 217 195 151 71
331 333 331 330 330 330 328 327 325 321 317 316 314 310 306 302 300 297 293 284 272 251 343 341 357 8 241 19 176 174 179 169 245 266 272 262 202 187 196 199 205 206 205 195 215 235 115
321 325 328 328 326 327 326 324 320 318 317 315 313 310 305 302 300 298 295 282 328 337 344 344 219 350 206 169 125 149 144 157 159 259 265 251 213 188 190 188 188 188 188 189 179 160 157
325 324 323 324 325 326 326 324 322 321 317 313 311 310 308 303 300 299 307 330 344 340 346 258 30 180 216 126 180 103 104 140 157 179 211 212 241 199 189 190 191 201 197 190 197 132 162
321 322 326 328 328 330 329 325 322 320 318 316 313 312 310 305 300 295 320 324 316 316 287 242 226 223 216 174 91 164 144 140 164 175 186 216 206 213 204 194 195 203 212 212 215 190 177
325 326 327 328 325 325 325 323 319 318 317 315 313 312 311 307 296 313 315 311 318 316 310 273 224 216 208 205 207 197 180 183 196 185 184 208 206 224 234 217 209 200 205 210 224 202 203
324 326 327 327 326 324 323 321 319 318 316 314 312 312 313 314 312 316 321 330 323 320 312 306 285 238 204 204 217 206 197 198 220 213 209 207 199 211 212 229 217 219 199 215 225 226 254
328 328 327 326 325 324 323 322 320 318 317 317 314 313 315 314 312 312 309 317 314 317 304 329 297 317 288 196 329 203 198 200 206 212 239 213 202 204 215 205 217 234 197 207 227 265 256
331 331 331 330 328 327 326 324 323 322 322 320 315 312 312 315 314 309 309 308 310 300 291 307 304 304 266 229 221 309 190 198 216 211 218 213 213 205 202 235 246 250 254 242 246 246 243
333 332 331 330 329 329 328 327 325 325 322 320 316 313 307 308 304 311 312 303 291 277 304 293 277 288 254 247 221 253 206 203 204 203 214 227 215 208 206 218 232 244 247 253 253 250 247
333 331 331 330 329 328 327 325 323 323 323 320 317 313 313 304 298 298 301 286 273 285 262 297 296 274 266 249 239 239 240 228 219 210 229 229 239 211 207 203 218 225 239 247 251 254 258
333 332 332 331 329 327 325 323 322 322 322 321 315 318 312 303 287 283 278 267 274 274 285 283 280 280 264 254 251 240 231 243 239 219 221 237 248 270 214 224 212 217 244 237 254 261 260
333 331 330 328 327 326 325 324 322 321 323 322 317 312 310 310 284 268 267 260 274 276 284 282 277 277 269 253 247 243 237 240 249 238 236 260 274 253 252 242 225 217 240 245 249 251 252
334 333 331 330 329 328 328 327 326 327 327 325 319 310 314 321 291 275 266 271 273 275 278 277 277 275 271 264 260 249 248 257 246 251 242 253 263 268 242 231 233 244 239 248 255 252 254
336 334 333 332 330 329 329 328 328 329 330 326 317 301 333 320 287 280 275 276 277 275 276 275 272 270 268 267 264 262 250 250 255 256 245 246 259 259 260 248 241 231 232 235 252 253 252
335 334 333 332 332 331 329 329 329 328 330 326 311 303 302 296 284 282 283 280 278 275 273 269 269 269 268 262 263 261 261 256 255 252 251 250 247 256 256 258 252 235 244 252 253 255 255
336 334 332 330 328 328 328 328 328 329 328 326 316 305 309 294 283 282 284 280 278 277 277 273 268 268 264 261 257 258 258 257 254 248 258 242 251 242 251 251 255 249 239 244 247 254 255
338 335 333 331 329 326 325 325 326 326 325 323 315 305 308 295 292 291 300 290 282 278 276 277 272 265 266 261 255 253 252 254 253 248 250 246 251 252 248 255 256 255 252 252 251 255 257
341 339 337 334 330 328 323 318 319 322 327 317 310 311 311 302 297 288 287 285 284 278 271 273 273 264 263 261 265 257 254 247 249 245 246 242 249 251 253 252 254 257 256 254 253 253 257
342 341 340 339 336 328 321 318 317 322 329 321 321 314 311 305 300 294 286 282 287 287 270 271 277 261 258 262 266 264 258 253 253 243 245 240 242 246 251 253 254 253 252 259 261 259 257
346 345 342 341 340 331 322 324 318 324 329 321 321 319 313 301 295 289 288 284 285 279 276 271 269 262 261 274 271 261 255 250 247 242 243 240 237 243 249 251 249 255 256 258 262 264 266
350 349 348 349 346 270 280 281 319 322 331 321 323 321 310 291 278 273 272 294 289 276 269 263 269 263 268 272 259 253 246 245 237 238 238 242 234 241 244 245 254 254 254 265 259 260 268
353 352 349 341 305 271 251 242 261 323 327 327 329 321 311 282 287 241 287 284 282 282 272 258 273 274 258 257 255 241 238 239 230 232 240 239 237 239 240 244 245 249 252 266 275 270 285
356 353 359 3 4 302 241 240 357 338 314 332 321 326 313 293 284 259 250 289 271 280 273 271 271 263 256 251 246 243 239 240 232 230 228 233 236 238 240 244 252 266 253 255 251 260 290
9 12 14 16 19 18 10 359 352 341 209 349 322 326 313 304 288 246 243 247 243 239 248 264 284 262 250 241 242 241 238 240 240 234 230 231 233 239 242 244 246 246 250 253 256 270 275
16 15 18 23 25 26 29 356 354 336 335 341 325 323 318 290 277 265 244 243 245 237 239 236 241 256 267 239 237 241 233 244 244 236 242 237 240 244 247 247 246 290 258 270 278 282 291